Location: Sobotiste
(48.7170°N, 17.4000°E)
Time: 09:03:10
(UTC+02:00)

AO-73 - Pass Details

Date: 22 March 2026
Orbit: 514 x 567 km, 97.8° (Epoch: 14 April)

Event Time Altitude Azimuth Distance (km) Brightness Sun altitude
Rises 04:16:45 0° 7° (N) 2,655 ? -15.8°
Reaches altitude 10° 04:18:57 10° 360° (N) 1,758 ? -15.5°
Maximum altitude 04:22:29 39° 290° (WNW) 780 ? -14.9°
Enters shadow 04:23:57 27° 242° (WSW) 1,017 ? -14.7°
